Location: Campestrin
(46.4667°N, 11.7167°E)
Time: 04:04:34
(UTC+00:00)

Lacrosse 5 rocket - Pass Details

Date: 18 April 2021
Orbit: 460 x 634 km, 57.0° (Epoch: 16 May)

Event Time Altitude Azimuth Distance (km) Brightness Sun altitude
Rises 19:25:50 0° 277° (W) 2,670 6.1 -13.4°
Reaches altitude 10° 19:28:21 10° 292° (WNW) 1,816 5.3 -13.8°
Maximum altitude 19:31:41 23° 346° (NNW) 1,218 3.6 -14.3°
Drops below altitude 10° 19:35:11 10° 40° (NE) 1,908 4.0 -14.8°
Sets 19:37:53 0° 55° (NE) 2,843 4.8 -15.1°
